Location: Brusselsch Zeekanaal
(50.8667°N, 4.3667°E)
Time: 10:28:36
(UTC+00:00)

Cosmos 1328 - Pass Details

Date: 08 November 2025
Orbit: 462 x 479 km, 82.5° (Epoch: 11 December)

Event Time Altitude Azimuth Distance (km) Brightness Sun altitude
Rises 05:08:55 0° 207° (SSW) 2,541 7.0 -15.5°
Reaches altitude 10° 05:11:05 10° 215° (SW) 1,668 6.0 -15.2°
Maximum altitude 05:14:33 40° 286° (WNW) 736 4.0 -14.7°
Drops below altitude 10° 05:18:03 10° 357° (N) 1,687 6.2 -14.1°
Sets 05:20:16 0° 5° (N) 2,573 7.2 -13.8°
